Time,TemperatureF,DewpointF,PressureIn,WindDirection,WindDirectionDegrees,WindSpeedMPH,WindSpeedGustMPH,Humidity,HourlyPrecipIn,Conditions,Clouds,dailyrainin,SoftwareType,DateUTC
2014-08-20 00:02:00,71.1,63.9,29.78,NW,312,0.0,7.0,78,0.00,,,0.00,meteohub,2014-08-20 05:02:00,
2014-08-20 00:07:00,70.9,63.7,29.78,NW,315,0.0,7.0,78,0.00,,,0.00,meteohub,2014-08-20 05:07:00,
2014-08-20 00:12:00,70.9,63.7,29.78,NW,315,0.0,7.0,78,0.00,,,0.00,meteohub,2014-08-20 05:12:00,
2014-08-20 00:17:00,70.7,63.5,29.78,NW,315,0.0,6.0,78,0.00,,,0.00,meteohub,2014-08-20 05:17:00,
2014-08-20 00:22:00,70.5,63.3,29.78,NW,315,0.0,4.0,78,0.00,,,0.00,meteohub,2014-08-20 05:22:00,
2014-08-20 00:27:00,70.3,63.5,29.78,NW,315,0.0,0.0,79,0.00,,,0.00,meteohub,2014-08-20 05:27:00,
2014-08-20 00:32:00,70.3,63.5,29.78,NW,313,0.0,2.0,79,0.00,,,0.00,meteohub,2014-08-20 05:32:00,
2014-08-20 00:37:00,70.3,63.5,29.78,NW,313,0.0,2.0,79,0.00,,,0.00,meteohub,2014-08-20 05:37:00,
2014-08-20 00:42:00,70.2,63.3,29.78,WNW,303,0.0,2.0,79,0.00,,,0.00,meteohub,2014-08-20 05:42:00,
2014-08-20 00:47:00,70.2,63.3,29.78,WNW,303,0.0,0.0,79,0.00,,,0.00,meteohub,2014-08-20 05:47:00,
2014-08-20 00:52:00,70.2,63.3,29.79,WNW,303,0.0,0.0,79,0.00,,,0.00,meteohub,2014-08-20 05:52:00,
2014-08-20 00:57:00,70.0,63.1,29.78,WNW,303,0.0,0.0,79,0.00,,,0.00,meteohub,2014-08-20 05:57:00,
2014-08-20 01:02:00,70.0,63.1,29.78,WNW,303,0.0,0.0,79,0.00,,,0.00,meteohub,2014-08-20 06:02:00,
2014-08-20 01:07:00,70.0,63.1,29.78,WNW,302,0.0,0.0,79,0.00,,,0.00,meteohub,2014-08-20 06:07:00,
2014-08-20 01:12:00,70.0,63.5,29.78,WNW,302,0.0,0.0,80,0.00,,,0.00,meteohub,2014-08-20 06:12:00,
2014-08-20 01:17:00,69.8,63.3,29.78,WNW,302,0.0,0.0,80,0.00,,,0.00,meteohub,2014-08-20 06:17:00,
2014-08-20 01:22:00,69.6,63.1,29.78,WNW,302,0.0,0.0,80,0.00,,,0.00,meteohub,2014-08-20 06:22:00,
2014-08-20 01:27:00,69.4,63.0,29.78,West,279,0.0,0.0,80,0.00,,,0.00,meteohub,2014-08-20 06:27:00,
2014-08-20 01:32:00,69.3,63.1,29.78,West,273,0.0,1.0,81,0.00,,,0.00,meteohub,2014-08-20 06:32:00,
2014-08-20 01:37:00,69.1,63.0,29.78,West,273,0.0,1.0,81,0.00,,,0.00,meteohub,2014-08-20 06:37:00,
2014-08-20 01:42:00,68.7,63.0,29.78,West,260,0.0,1.0,82,0.00,,,0.00,meteohub,2014-08-20 06:42:00,
2014-08-20 01:47:00,68.7,63.0,29.78,West,259,0.0,2.0,82,0.00,,,0.00,meteohub,2014-08-20 06:47:00,
2014-08-20 01:52:00,68.5,62.8,29.78,West,259,0.0,2.0,82,0.00,,,0.00,meteohub,2014-08-20 06:52:00,
2014-08-20 01:57:00,68.5,62.8,29.78,West,274,0.0,2.0,82,0.00,,,0.00,meteohub,2014-08-20 06:57:00,
2014-08-20 02:02:00,68.5,62.8,29.78,West,274,0.0,5.0,82,0.00,,,0.00,meteohub,2014-08-20 07:02:00,
2014-08-20 02:07:00,68.5,62.8,29.78,West,276,0.0,5.0,82,0.00,,,0.00,meteohub,2014-08-20 07:07:00,
2014-08-20 02:12:00,68.5,62.8,29.78,West,276,0.0,5.0,82,0.00,,,0.00,meteohub,2014-08-20 07:12:00,
2014-08-20 02:17:00,68.4,63.0,29.79,West,276,0.0,5.0,83,0.00,,,0.00,meteohub,2014-08-20 07:17:00,
2014-08-20 02:22:00,68.4,63.0,29.79,West,266,0.0,3.0,83,0.00,,,0.00,meteohub,2014-08-20 07:22:00,
2014-08-20 02:27:00,68.4,63.0,29.79,West,275,0.0,4.0,83,0.00,,,0.00,meteohub,2014-08-20 07:27:00,
2014-08-20 02:32:00,68.4,63.0,29.79,West,270,0.0,4.0,83,0.00,,,0.00,meteohub,2014-08-20 07:32:00,
2014-08-20 02:37:00,68.4,63.0,29.79,West,260,1.0,4.0,83,0.00,,,0.00,meteohub,2014-08-20 07:37:00,
2014-08-20 02:42:00,68.4,63.0,29.79,West,262,0.0,2.0,83,0.00,,,0.00,meteohub,2014-08-20 07:42:00,
2014-08-20 02:47:00,68.2,62.8,29.80,West,262,0.0,2.0,83,0.00,,,0.00,meteohub,2014-08-20 07:47:00,
2014-08-20 02:52:00,68.2,62.8,29.80,West,262,0.0,2.0,83,0.00,,,0.00,meteohub,2014-08-20 07:52:00,
2014-08-20 02:57:00,68.2,62.8,29.80,West,260,0.0,0.0,83,0.00,,,0.00,meteohub,2014-08-20 07:57:00,
2014-08-20 03:02:00,68.0,63.0,29.80,WSW,256,0.0,0.0,84,0.00,,,0.00,meteohub,2014-08-20 08:02:00,
2014-08-20 03:07:00,68.0,63.0,29.80,WSW,249,1.0,3.0,84,0.00,,,0.00,meteohub,2014-08-20 08:07:00,
2014-08-20 03:12:00,68.0,63.0,29.80,WSW,248,4.0,4.0,84,0.00,,,0.00,meteohub,2014-08-20 08:12:00,
2014-08-20 03:17:00,68.0,63.0,29.80,WSW,248,0.0,7.0,84,0.00,,,0.00,meteohub,2014-08-20 08:17:00,
2014-08-20 03:22:00,68.0,63.0,29.80,WSW,248,0.0,7.0,84,0.00,,,0.00,meteohub,2014-08-20 08:22:00,
2014-08-20 03:27:00,67.8,62.8,29.80,West,259,0.0,7.0,84,0.00,,,0.00,meteohub,2014-08-20 08:27:00,
2014-08-20 03:32:00,67.8,62.8,29.80,West,269,0.0,4.0,84,0.00,,,0.00,meteohub,2014-08-20 08:32:00,
2014-08-20 03:37:00,67.8,62.8,29.81,West,268,0.0,5.0,84,0.00,,,0.00,meteohub,2014-08-20 08:37:00,
2014-08-20 03:42:00,67.8,62.8,29.81,West,265,0.0,5.0,84,0.00,,,0.00,meteohub,2014-08-20 08:42:00,
2014-08-20 03:47:00,67.8,62.8,29.81,West,268,0.0,3.0,84,0.00,,,0.00,meteohub,2014-08-20 08:47:00,
2014-08-20 03:52:00,67.8,62.8,29.80,West,269,0.0,3.0,84,0.00,,,0.00,meteohub,2014-08-20 08:52:00,
2014-08-20 03:57:00,67.8,62.8,29.81,West,280,3.0,5.0,84,0.00,,,0.00,meteohub,2014-08-20 08:57:00,
2014-08-20 04:02:00,67.8,62.8,29.81,West,280,0.0,6.0,84,0.00,,,0.00,meteohub,2014-08-20 09:02:00,
2014-08-20 04:07:00,68.0,63.0,29.80,West,280,0.0,6.0,84,0.00,,,0.00,meteohub,2014-08-20 09:07:00,
2014-08-20 04:12:00,68.0,63.0,29.80,West,280,0.0,5.0,84,0.00,,,0.00,meteohub,2014-08-20 09:12:00,
2014-08-20 04:17:00,68.2,63.1,29.81,West,280,0.0,5.0,84,0.00,,,0.00,meteohub,2014-08-20 09:17:00,
2014-08-20 04:22:00,68.2,63.1,29.80,West,281,0.0,3.0,84,0.00,,,0.00,meteohub,2014-08-20 09:22:00,
2014-08-20 04:27:00,68.4,63.3,29.80,WNW,288,5.0,5.0,84,0.00,,,0.00,meteohub,2014-08-20 09:27:00,
2014-08-20 04:32:00,68.4,63.3,29.80,WNW,288,0.0,5.0,84,0.00,,,0.00,meteohub,2014-08-20 09:32:00,
2014-08-20 04:37:00,68.2,63.1,29.80,WNW,288,0.0,5.0,84,0.00,,,0.00,meteohub,2014-08-20 09:37:00,
2014-08-20 04:42:00,67.8,63.1,29.81,WNW,288,0.0,5.0,85,0.00,,,0.00,meteohub,2014-08-20 09:42:00,
2014-08-20 04:47:00,67.6,63.0,29.81,WNW,288,0.0,2.0,85,0.00,,,0.00,meteohub,2014-08-20 09:47:00,
2014-08-20 04:52:00,67.5,62.8,29.81,WNW,288,0.0,2.0,85,0.00,,,0.00,meteohub,2014-08-20 09:52:00,
2014-08-20 04:57:00,67.5,63.1,29.81,WNW,288,0.0,1.0,86,0.00,,,0.00,meteohub,2014-08-20 09:57:00,
2014-08-20 05:02:00,67.5,63.1,29.81,WNW,288,0.0,1.0,86,0.00,,,0.00,meteohub,2014-08-20 10:02:00,
2014-08-20 05:07:00,67.5,63.1,29.81,WNW,288,0.0,3.0,86,0.00,,,0.00,meteohub,2014-08-20 10:07:00,
2014-08-20 05:12:00,67.5,63.1,29.81,WNW,288,0.0,3.0,86,0.00,,,0.00,meteohub,2014-08-20 10:12:00,
2014-08-20 05:17:00,67.5,63.1,29.81,WNW,288,0.0,2.0,86,0.00,,,0.00,meteohub,2014-08-20 10:17:00,
2014-08-20 05:22:00,67.5,63.1,29.81,WNW,288,0.0,2.0,86,0.00,,,0.00,meteohub,2014-08-20 10:22:00,
2014-08-20 05:27:00,67.5,63.1,29.81,WNW,288,0.0,1.0,86,0.00,,,0.00,meteohub,2014-08-20 10:27:00,
2014-08-20 05:32:00,67.3,63.0,29.81,West,270,0.0,1.0,86,0.00,,,0.00,meteohub,2014-08-20 10:32:00,
2014-08-20 05:37:00,67.3,63.3,29.81,West,271,0.0,2.0,87,0.00,,,0.00,meteohub,2014-08-20 10:37:00,
2014-08-20 05:42:00,67.3,63.3,29.80,West,272,0.0,2.0,87,0.00,,,0.00,meteohub,2014-08-20 10:42:00,
2014-08-20 05:47:00,67.3,63.3,29.80,West,272,0.0,2.0,87,0.00,,,0.00,meteohub,2014-08-20 10:47:00,
2014-08-20 05:52:00,67.3,63.3,29.80,West,272,0.0,2.0,87,0.00,,,0.00,meteohub,2014-08-20 10:52:00,
2014-08-20 05:57:00,67.1,63.1,29.81,West,272,0.0,1.0,87,0.00,,,0.00,meteohub,2014-08-20 10:57:00,
2014-08-20 06:02:00,66.9,63.0,29.81,West,272,0.0,1.0,87,0.00,,,0.00,meteohub,2014-08-20 11:02:00,
2014-08-20 06:07:00,66.7,63.1,29.81,West,271,0.0,0.0,88,0.00,,,0.00,meteohub,2014-08-20 11:07:00,
2014-08-20 06:12:00,66.7,63.1,29.81,West,271,0.0,0.0,88,0.00,,,0.00,meteohub,2014-08-20 11:12:00,
2014-08-20 06:17:00,66.6,63.0,29.81,West,271,0.0,0.0,88,0.00,,,0.00,meteohub,2014-08-20 11:17:00,
2014-08-20 06:22:00,66.6,63.0,29.82,West,271,0.0,0.0,88,0.00,,,0.00,meteohub,2014-08-20 11:22:00,
2014-08-20 06:27:00,66.6,63.0,29.82,West,271,0.0,0.0,88,0.00,,,0.00,meteohub,2014-08-20 11:27:00,
2014-08-20 06:32:00,66.6,63.0,29.82,West,271,0.0,0.0,88,0.00,,,0.00,meteohub,2014-08-20 11:32:00,
2014-08-20 06:37:00,66.6,63.0,29.82,West,272,0.0,0.0,88,0.00,,,0.00,meteohub,2014-08-20 11:37:00,
2014-08-20 06:42:00,66.6,63.0,29.82,West,271,0.0,0.0,88,0.00,,,0.00,meteohub,2014-08-20 11:42:00,
2014-08-20 06:47:00,66.6,63.0,29.82,West,271,0.0,0.0,88,0.00,,,0.00,meteohub,2014-08-20 11:47:00,
2014-08-20 06:52:00,66.7,63.1,29.82,West,271,0.0,0.0,88,0.00,,,0.00,meteohub,2014-08-20 11:52:00,
2014-08-20 06:57:00,66.7,63.1,29.82,West,271,0.0,0.0,88,0.00,,,0.00,meteohub,2014-08-20 11:57:00,
2014-08-20 07:02:00,66.9,63.3,29.83,West,272,0.0,0.0,88,0.00,,,0.00,meteohub,2014-08-20 12:02:00,
2014-08-20 07:07:00,67.3,63.3,29.83,West,271,0.0,0.0,87,0.00,,,0.00,meteohub,2014-08-20 12:07:00,
2014-08-20 07:12:00,67.3,63.3,29.83,West,271,0.0,0.0,87,0.00,,,0.00,meteohub,2014-08-20 12:12:00,
2014-08-20 07:17:00,67.6,63.7,29.83,West,271,0.0,0.0,87,0.00,,,0.00,meteohub,2014-08-20 12:17:00,
2014-08-20 07:22:00,68.0,63.7,29.83,West,271,0.0,0.0,86,0.00,,,0.00,meteohub,2014-08-20 12:22:00,
2014-08-20 07:27:00,68.2,63.5,29.84,West,271,0.0,0.0,85,0.00,,,0.00,meteohub,2014-08-20 12:27:00,
2014-08-20 07:32:00,68.4,63.7,29.84,West,271,0.0,2.0,85,0.00,,,0.00,meteohub,2014-08-20 12:32:00,
2014-08-20 07:37:00,68.5,63.9,29.84,West,271,0.0,2.0,85,0.00,,,0.00,meteohub,2014-08-20 12:37:00,
2014-08-20 07:42:00,68.9,63.9,29.84,West,271,0.0,2.0,84,0.00,,,0.00,meteohub,2014-08-20 12:42:00,
2014-08-20 07:47:00,69.3,63.9,29.85,West,272,0.0,1.0,83,0.00,,,0.00,meteohub,2014-08-20 12:47:00,
2014-08-20 07:52:00,69.4,64.0,29.85,West,268,0.0,1.0,83,0.00,,,0.00,meteohub,2014-08-20 12:52:00,
2014-08-20 07:57:00,69.8,64.4,29.85,West,267,0.0,1.0,83,0.00,,,0.00,meteohub,2014-08-20 12:57:00,
2014-08-20 08:02:00,70.2,64.4,29.85,West,267,0.0,1.0,82,0.00,,,0.00,meteohub,2014-08-20 13:02:00,
2014-08-20 08:07:00,70.5,64.4,29.85,West,274,0.0,2.0,81,0.00,,,0.00,meteohub,2014-08-20 13:07:00,
2014-08-20 08:12:00,70.9,64.8,29.85,West,269,0.0,7.0,81,0.00,,,0.00,meteohub,2014-08-20 13:12:00,
2014-08-20 08:17:00,71.1,64.6,29.86,West,270,0.0,7.0,80,0.00,,,0.00,meteohub,2014-08-20 13:17:00,
2014-08-20 08:22:00,71.4,64.6,29.86,West,270,0.0,3.0,79,0.00,,,0.00,meteohub,2014-08-20 13:22:00,
2014-08-20 08:27:00,72.0,64.8,29.86,West,270,0.0,3.0,78,0.00,,,0.00,meteohub,2014-08-20 13:27:00,
2014-08-20 08:32:00,72.3,65.1,29.85,West,271,0.0,3.0,78,0.00,,,0.00,meteohub,2014-08-20 13:32:00,
2014-08-20 08:37:00,73.2,65.1,29.85,West,281,0.0,3.0,76,0.00,,,0.00,meteohub,2014-08-20 13:37:00,
2014-08-20 08:42:00,73.9,65.5,29.85,WNW,283,0.0,3.0,75,0.00,,,0.00,meteohub,2014-08-20 13:42:00,
2014-08-20 08:47:00,74.7,65.8,29.85,WNW,295,0.0,5.0,74,0.00,,,0.00,meteohub,2014-08-20 13:47:00,
2014-08-20 08:52:00,74.7,65.5,29.85,NNW,343,0.0,5.0,73,0.00,,,0.00,meteohub,2014-08-20 13:52:00,
2014-08-20 08:57:00,74.3,65.5,29.86,NNW,343,0.0,5.0,74,0.00,,,0.00,meteohub,2014-08-20 13:57:00,
2014-08-20 09:02:00,74.1,65.7,29.85,NNW,343,0.0,5.0,75,0.00,,,0.00,meteohub,2014-08-20 14:02:00,
2014-08-20 09:07:00,74.3,65.8,29.86,NNW,343,0.0,3.0,75,0.00,,,0.00,meteohub,2014-08-20 14:07:00,
2014-08-20 09:12:00,74.7,65.5,29.86,NNW,343,0.0,3.0,73,0.00,,,0.00,meteohub,2014-08-20 14:12:00,
2014-08-20 09:17:00,75.0,64.9,29.86,NNW,334,0.0,2.0,71,0.00,,,0.00,meteohub,2014-08-20 14:17:00,
2014-08-20 09:22:00,75.4,64.6,29.86,WSW,244,7.0,7.0,69,0.00,,,0.00,meteohub,2014-08-20 14:22:00,
2014-08-20 09:27:00,75.4,64.6,29.86,WSW,245,3.0,7.0,69,0.00,,,0.00,meteohub,2014-08-20 14:27:00,
2014-08-20 09:32:00,75.4,64.0,29.86,WNW,287,0.0,7.0,68,0.00,,,0.00,meteohub,2014-08-20 14:32:00,
2014-08-20 09:37:00,75.6,64.2,29.86,WNW,290,1.0,7.0,68,0.00,,,0.00,meteohub,2014-08-20 14:37:00,
2014-08-20 09:42:00,75.7,64.4,29.86,WNW,291,3.0,7.0,68,0.00,,,0.00,meteohub,2014-08-20 14:42:00,
2014-08-20 09:47:00,75.9,64.2,29.86,WSW,248,0.0,9.0,67,0.00,,,0.00,meteohub,2014-08-20 14:47:00,
2014-08-20 09:52:00,76.5,64.8,29.86,West,281,0.0,9.0,67,0.00,,,0.00,meteohub,2014-08-20 14:52:00,
2014-08-20 09:57:00,76.8,64.6,29.86,WSW,246,0.0,9.0,66,0.00,,,0.00,meteohub,2014-08-20 14:57:00,
2014-08-20 10:02:00,77.0,64.4,29.86,NW,309,0.0,5.0,65,0.00,,,0.00,meteohub,2014-08-20 15:02:00,
2014-08-20 10:07:00,77.0,64.4,29.86,West,281,0.0,8.0,65,0.00,,,0.00,meteohub,2014-08-20 15:07:00,
2014-08-20 10:12:00,77.2,64.6,29.86,WNW,288,0.0,8.0,65,0.00,,,0.00,meteohub,2014-08-20 15:12:00,
2014-08-20 10:17:00,77.4,64.8,29.86,WNW,301,3.0,8.0,65,0.00,,,0.00,meteohub,2014-08-20 15:17:00,
2014-08-20 10:22:00,77.4,64.8,29.86,WSW,251,0.0,9.0,65,0.00,,,0.00,meteohub,2014-08-20 15:22:00,
2014-08-20 10:27:00,77.5,64.8,29.86,NW,320,2.0,9.0,65,0.00,,,0.00,meteohub,2014-08-20 15:27:00,
2014-08-20 10:32:00,77.5,64.4,29.86,West,259,0.0,11.0,64,0.00,,,0.00,meteohub,2014-08-20 15:32:00,
2014-08-20 10:37:00,77.7,64.9,29.87,WSW,257,1.0,11.0,65,0.00,,,0.00,meteohub,2014-08-20 15:37:00,
2014-08-20 10:42:00,78.1,65.3,29.87,West,272,3.0,11.0,65,0.00,,,0.00,meteohub,2014-08-20 15:42:00,
2014-08-20 10:47:00,77.9,65.1,29.87,WSW,241,0.0,11.0,65,0.00,,,0.00,meteohub,2014-08-20 15:47:00,
2014-08-20 10:52:00,78.3,66.0,29.87,SW,236,2.0,11.0,66,0.00,,,0.00,meteohub,2014-08-20 15:52:00,
2014-08-20 10:57:00,78.3,66.0,29.87,WNW,284,0.0,11.0,66,0.00,,,0.00,meteohub,2014-08-20 15:57:00,
2014-08-20 11:02:00,78.3,66.0,29.87,SW,229,1.0,11.0,66,0.00,,,0.00,meteohub,2014-08-20 16:02:00,
2014-08-20 11:07:00,78.4,65.7,29.87,WSW,246,10.0,11.0,65,0.00,,,0.00,meteohub,2014-08-20 16:07:00,
2014-08-20 11:12:00,78.6,65.8,29.87,NNW,328,4.0,10.0,65,0.00,,,0.00,meteohub,2014-08-20 16:12:00,
2014-08-20 11:17:00,79.0,65.3,29.87,WNW,297,7.0,10.0,63,0.00,,,0.00,meteohub,2014-08-20 16:17:00,
2014-08-20 11:22:00,79.0,65.3,29.87,WNW,299,0.0,10.0,63,0.00,,,0.00,meteohub,2014-08-20 16:22:00,
2014-08-20 11:27:00,79.0,65.3,29.87,WSW,247,9.0,10.0,63,0.00,,,0.00,meteohub,2014-08-20 16:27:00,
2014-08-20 11:32:00,79.2,64.9,29.87,West,270,3.0,10.0,62,0.00,,,0.00,meteohub,2014-08-20 16:32:00,
2014-08-20 11:37:00,79.5,64.9,29.87,WSW,249,2.0,11.0,61,0.00,,,0.00,meteohub,2014-08-20 16:37:00,
2014-08-20 11:42:00,79.5,64.9,29.87,West,272,1.0,11.0,61,0.00,,,0.00,meteohub,2014-08-20 16:42:00,
2014-08-20 11:47:00,79.3,64.2,29.88,NW,313,6.0,12.0,60,0.00,,,0.00,meteohub,2014-08-20 16:47:00,
2014-08-20 11:52:00,79.3,65.1,29.88,WSW,258,0.0,12.0,62,0.00,,,0.00,meteohub,2014-08-20 16:52:00,
2014-08-20 11:57:00,80.1,65.8,29.88,WNW,290,0.0,12.0,62,0.00,,,0.00,meteohub,2014-08-20 16:57:00,
2014-08-20 12:02:00,80.2,65.5,29.88,WNW,284,0.0,12.0,61,0.00,,,0.00,meteohub,2014-08-20 17:02:00,
2014-08-20 12:07:00,80.8,65.7,29.88,WSW,241,9.0,10.0,60,0.00,,,0.00,meteohub,2014-08-20 17:07:00,
2014-08-20 12:12:00,80.8,65.7,29.88,NW,313,8.0,11.0,60,0.00,,,0.00,meteohub,2014-08-20 17:12:00,
2014-08-20 12:17:00,79.9,65.3,29.88,NW,310,7.0,14.0,61,0.00,,,0.00,meteohub,2014-08-20 17:17:00,
2014-08-20 12:22:00,79.7,66.0,29.88,WNW,297,4.0,14.0,63,0.00,,,0.00,meteohub,2014-08-20 17:22:00,
2014-08-20 12:27:00,79.7,65.5,29.87,NW,322,3.0,14.0,62,0.00,,,0.00,meteohub,2014-08-20 17:27:00,
2014-08-20 12:32:00,79.5,64.9,29.88,WNW,300,4.0,13.0,61,0.00,,,0.00,meteohub,2014-08-20 17:32:00,
2014-08-20 12:37:00,79.5,65.3,29.88,NW,314,4.0,13.0,62,0.00,,,0.00,meteohub,2014-08-20 17:37:00,
2014-08-20 12:42:00,79.3,65.7,29.87,NW,326,6.0,14.0,63,0.00,,,0.00,meteohub,2014-08-20 17:42:00,
2014-08-20 12:47:00,79.3,65.7,29.88,NW,323,4.0,14.0,63,0.00,,,0.00,meteohub,2014-08-20 17:47:00,
2014-08-20 12:52:00,79.9,65.7,29.87,NW,313,7.0,14.0,62,0.00,,,0.00,meteohub,2014-08-20 17:52:00,
2014-08-20 12:57:00,80.1,65.8,29.87,NW,322,0.0,11.0,62,0.00,,,0.00,meteohub,2014-08-20 17:57:00,
2014-08-20 13:02:00,80.6,65.8,29.87,WSW,246,2.0,10.0,61,0.00,,,0.00,meteohub,2014-08-20 18:02:00,
2014-08-20 13:07:00,80.8,65.7,29.87,NNW,335,3.0,13.0,60,0.00,,,0.00,meteohub,2014-08-20 18:07:00,
2014-08-20 13:12:00,80.8,65.1,29.86,NNW,331,0.0,13.0,59,0.00,,,0.00,meteohub,2014-08-20 18:12:00,
2014-08-20 13:17:00,81.3,65.7,29.86,NW,315,8.0,11.0,59,0.00,,,0.00,meteohub,2014-08-20 18:17:00,
2014-08-20 13:22:00,81.3,65.7,29.86,WNW,301,0.0,15.0,59,0.00,,,0.00,meteohub,2014-08-20 18:22:00,
2014-08-20 13:27:00,81.1,64.9,29.86,NNW,332,4.0,15.0,58,0.00,,,0.00,meteohub,2014-08-20 18:27:00,
2014-08-20 13:32:00,81.0,65.3,29.86,NNW,334,7.0,15.0,59,0.00,,,0.00,meteohub,2014-08-20 18:32:00,
2014-08-20 13:37:00,81.3,64.6,29.86,NW,313,6.0,14.0,57,0.00,,,0.00,meteohub,2014-08-20 18:37:00,
2014-08-20 13:42:00,81.9,65.1,29.86,NW,308,10.0,14.0,57,0.00,,,0.00,meteohub,2014-08-20 18:42:00,
2014-08-20 13:47:00,81.9,64.6,29.86,WSW,256,1.0,13.0,56,0.00,,,0.00,meteohub,2014-08-20 18:47:00,
2014-08-20 13:52:00,82.2,64.9,29.86,NW,321,7.0,12.0,56,0.00,,,0.00,meteohub,2014-08-20 18:52:00,
2014-08-20 13:57:00,82.0,65.3,29.86,WSW,246,3.0,11.0,57,0.00,,,0.00,meteohub,2014-08-20 18:57:00,
2014-08-20 14:02:00,82.6,65.3,29.86,NW,319,0.0,8.0,56,0.00,,,0.00,meteohub,2014-08-20 19:02:00,
2014-08-20 14:07:00,83.1,65.8,29.86,NNW,337,4.0,8.0,56,0.00,,,0.00,meteohub,2014-08-20 19:07:00,
2014-08-20 14:12:00,83.1,65.8,29.86,NW,314,3.0,9.0,56,0.00,,,0.00,meteohub,2014-08-20 19:12:00,
2014-08-20 14:17:00,82.8,66.0,29.86,NW,315,4.0,10.0,57,0.00,,,0.00,meteohub,2014-08-20 19:17:00,
2014-08-20 14:22:00,82.9,65.7,29.85,NW,322,0.0,10.0,56,0.00,,,0.00,meteohub,2014-08-20 19:22:00,
2014-08-20 14:27:00,82.2,65.5,29.85,NW,312,5.0,10.0,57,0.01,,,0.01,meteohub,2014-08-20 19:27:00,
2014-08-20 14:32:00,81.7,66.0,29.85,NNW,329,0.0,10.0,59,0.01,,,0.01,meteohub,2014-08-20 19:32:00,
2014-08-20 14:37:00,81.9,66.2,29.85,NW,305,0.0,10.0,59,0.01,,,0.01,meteohub,2014-08-20 19:37:00,
2014-08-20 14:42:00,82.6,66.4,29.85,WNW,290,0.0,9.0,58,0.01,,,0.01,meteohub,2014-08-20 19:42:00,
2014-08-20 14:47:00,82.9,66.6,29.85,NW,306,0.0,5.0,58,0.01,,,0.01,meteohub,2014-08-20 19:47:00,
2014-08-20 14:52:00,83.5,66.6,29.85,NNW,337,1.0,4.0,57,0.01,,,0.01,meteohub,2014-08-20 19:52:00,
2014-08-20 14:57:00,83.3,66.6,29.86,WSW,241,2.0,7.0,57,0.01,,,0.01,meteohub,2014-08-20 19:57:00,
2014-08-20 15:02:00,82.9,66.6,29.85,WSW,239,1.0,9.0,58,0.01,,,0.01,meteohub,2014-08-20 20:02:00,
2014-08-20 15:07:00,82.9,66.6,29.85,WSW,249,5.0,9.0,58,0.01,,,0.01,meteohub,2014-08-20 20:07:00,
2014-08-20 15:12:00,83.1,66.7,29.84,NNW,335,0.0,9.0,58,0.01,,,0.01,meteohub,2014-08-20 20:12:00,
2014-08-20 15:17:00,82.9,65.7,29.84,West,276,1.0,7.0,56,0.01,,,0.01,meteohub,2014-08-20 20:17:00,
2014-08-20 15:22:00,82.8,66.6,29.84,North,0,0.0,8.0,58,0.00,,,0.01,meteohub,2014-08-20 20:22:00,
2014-08-20 15:27:00,82.9,66.6,29.84,NNW,329,0.0,8.0,58,0.00,,,0.01,meteohub,2014-08-20 20:27:00,
2014-08-20 15:32:00,82.9,66.6,29.84,NNE,32,1.0,8.0,58,0.00,,,0.01,meteohub,2014-08-20 20:32:00,
2014-08-20 15:37:00,83.5,66.6,29.84,NW,318,1.0,8.0,57,0.00,,,0.01,meteohub,2014-08-20 20:37:00,
2014-08-20 15:42:00,83.5,66.6,29.84,NW,326,4.0,8.0,57,0.00,,,0.01,meteohub,2014-08-20 20:42:00,
2014-08-20 15:47:00,82.6,66.4,29.84,NW,311,1.0,11.0,58,0.00,,,0.01,meteohub,2014-08-20 20:47:00,
2014-08-20 15:52:00,82.6,66.4,29.85,NW,314,0.0,11.0,58,0.00,,,0.01,meteohub,2014-08-20 20:52:00,
2014-08-20 15:57:00,82.8,66.6,29.84,NW,312,2.0,11.0,58,0.00,,,0.01,meteohub,2014-08-20 20:57:00,
2014-08-20 16:02:00,82.8,66.6,29.85,NW,325,0.0,8.0,58,0.00,,,0.01,meteohub,2014-08-20 21:02:00,
2014-08-20 16:07:00,82.8,66.6,29.85,NW,315,0.0,8.0,58,0.00,,,0.01,meteohub,2014-08-20 21:07:00,
2014-08-20 16:12:00,82.9,66.6,29.85,WNW,298,4.0,8.0,58,0.00,,,0.01,meteohub,2014-08-20 21:12:00,
2014-08-20 16:17:00,83.1,66.7,29.85,NW,320,1.0,8.0,58,0.00,,,0.01,meteohub,2014-08-20 21:17:00,
2014-08-20 16:22:00,83.5,66.6,29.85,NW,316,4.0,11.0,57,0.00,,,0.01,meteohub,2014-08-20 21:22:00,
2014-08-20 16:27:00,83.7,65.8,29.85,WNW,290,4.0,11.0,55,0.00,,,0.01,meteohub,2014-08-20 21:27:00,
2014-08-20 16:32:00,83.7,66.7,29.85,North,0,3.0,11.0,57,0.00,,,0.01,meteohub,2014-08-20 21:32:00,
2014-08-20 16:37:00,83.8,66.4,29.85,NNE,24,1.0,10.0,56,0.00,,,0.01,meteohub,2014-08-20 21:37:00,
2014-08-20 16:42:00,83.7,65.8,29.85,NW,314,4.0,10.0,55,0.00,,,0.01,meteohub,2014-08-20 21:42:00,
2014-08-20 16:47:00,83.3,66.0,29.85,NW,305,8.0,10.0,56,0.00,,,0.01,meteohub,2014-08-20 21:47:00,
2014-08-20 16:52:00,82.9,66.2,29.85,NW,306,0.0,10.0,57,0.00,,,0.01,meteohub,2014-08-20 21:52:00,
2014-08-20 16:57:00,82.8,66.0,29.85,NW,309,0.0,8.0,57,0.00,,,0.01,meteohub,2014-08-20 21:57:00,
2014-08-20 17:02:00,82.6,65.8,29.86,NNW,339,0.0,8.0,57,0.00,,,0.01,meteohub,2014-08-20 22:02:00,
2014-08-20 17:07:00,82.6,65.8,29.85,NNW,348,7.0,8.0,57,0.00,,,0.01,meteohub,2014-08-20 22:07:00,
2014-08-20 17:12:00,82.8,66.0,29.85,NW,314,3.0,8.0,57,0.00,,,0.01,meteohub,2014-08-20 22:12:00,
2014-08-20 17:17:00,82.8,66.0,29.86,NW,305,0.0,8.0,57,0.00,,,0.01,meteohub,2014-08-20 22:17:00,
2014-08-20 17:22:00,82.6,66.4,29.86,NW,318,2.0,8.0,58,0.00,,,0.01,meteohub,2014-08-20 22:22:00,
2014-08-20 17:27:00,82.4,66.2,29.86,WNW,286,4.0,8.0,58,0.00,,,0.01,meteohub,2014-08-20 22:27:00,
2014-08-20 17:32:00,82.2,66.0,29.87,SW,235,0.0,9.0,58,0.00,,,0.01,meteohub,2014-08-20 22:32:00,
2014-08-20 17:37:00,82.4,66.6,29.86,WSW,256,0.0,9.0,59,0.00,,,0.01,meteohub,2014-08-20 22:37:00,
2014-08-20 17:42:00,82.6,66.7,29.86,West,266,0.0,9.0,59,0.00,,,0.01,meteohub,2014-08-20 22:42:00,
2014-08-20 17:47:00,82.6,66.4,29.86,WSW,238,0.0,3.0,58,0.00,,,0.01,meteohub,2014-08-20 22:47:00,
2014-08-20 17:52:00,82.6,66.4,29.87,WNW,287,0.0,3.0,58,0.00,,,0.01,meteohub,2014-08-20 22:52:00,
2014-08-20 17:57:00,82.8,66.6,29.87,WSW,244,0.0,3.0,58,0.00,,,0.01,meteohub,2014-08-20 22:57:00,
2014-08-20 18:02:00,82.8,66.6,29.86,WSW,241,0.0,3.0,58,0.00,,,0.01,meteohub,2014-08-20 23:02:00,
2014-08-20 18:07:00,82.6,66.7,29.86,WSW,243,0.0,7.0,59,0.00,,,0.01,meteohub,2014-08-20 23:07:00,
2014-08-20 18:12:00,82.6,66.7,29.86,WSW,246,0.0,7.0,59,0.00,,,0.01,meteohub,2014-08-20 23:12:00,
2014-08-20 18:17:00,82.4,66.6,29.86,WNW,301,0.0,4.0,59,0.00,,,0.01,meteohub,2014-08-20 23:17:00,
2014-08-20 18:22:00,82.2,66.4,29.86,WNW,301,0.0,5.0,59,0.00,,,0.01,meteohub,2014-08-20 23:22:00,
2014-08-20 18:27:00,82.4,67.1,29.86,WNW,297,0.0,5.0,60,0.00,,,0.01,meteohub,2014-08-20 23:27:00,
2014-08-20 18:32:00,82.4,67.1,29.86,NW,305,0.0,5.0,60,0.00,,,0.01,meteohub,2014-08-20 23:32:00,
2014-08-20 18:37:00,82.2,66.9,29.86,NW,308,0.0,2.0,60,0.00,,,0.01,meteohub,2014-08-20 23:37:00,
2014-08-20 18:42:00,82.0,66.7,29.86,NW,308,0.0,2.0,60,0.00,,,0.01,meteohub,2014-08-20 23:42:00,
2014-08-20 18:47:00,81.9,67.1,29.86,NW,308,0.0,2.0,61,0.00,,,0.01,meteohub,2014-08-20 23:47:00,
2014-08-20 18:52:00,82.0,66.7,29.85,NW,316,0.0,2.0,60,0.00,,,0.01,meteohub,2014-08-20 23:52:00,
2014-08-20 18:57:00,82.0,66.7,29.85,NW,316,0.0,2.0,60,0.00,,,0.01,meteohub,2014-08-20 23:57:00,
2014-08-20 19:02:00,82.0,66.7,29.86,NW,316,0.0,2.0,60,0.00,,,0.01,meteohub,2014-08-21 00:02:00,
2014-08-20 19:07:00,81.9,66.6,29.86,NW,316,0.0,1.0,60,0.00,,,0.00,meteohub,2014-08-21 00:07:00,
2014-08-20 19:12:00,81.7,66.4,29.86,NW,316,0.0,0.0,60,0.00,,,0.00,meteohub,2014-08-21 00:12:00,
2014-08-20 19:17:00,81.7,66.9,29.86,NW,318,0.0,0.0,61,0.00,,,0.00,meteohub,2014-08-21 00:17:00,
2014-08-20 19:22:00,81.5,66.7,29.87,NW,318,0.0,1.0,61,0.00,,,0.00,meteohub,2014-08-21 00:22:00,